Time,TemperatureF,DewpointF,PressureIn,WindDirection,WindDirectionDegrees,WindSpeedMPH,WindSpeedGustMPH,Humidity,HourlyPrecipIn,Conditions,Clouds,dailyrainin,SolarRadiationWatts/m^2,SoftwareType,DateUTC
2013-05-29 00:01:00,70.3,68.5,29.79,South,190,2.3,2.3,94,0.13,RA,,0.01,0.0,WeatherDisplay:10.37,2013-05-29 04:01:00,
2013-05-29 00:06:00,70.1,68.3,29.79,WSW,242,4.6,4.6,94,0.14,RA,,0.01,0.0,WeatherDisplay:10.37,2013-05-29 04:06:00,
2013-05-29 00:11:00,70.0,68.2,29.80,WSW,244,1.1,0.0,94,0.15,RA,,0.02,0.0,WeatherDisplay:10.37,2013-05-29 04:11:00,
2013-05-29 00:16:00,69.9,68.4,29.80,WSW,244,1.1,0.0,95,0.16,RA,,0.03,0.0,WeatherDisplay:10.37,2013-05-29 04:16:00,
2013-05-29 00:21:00,69.8,68.3,29.80,WSW,244,1.0,0.0,95,0.17,RA,,0.04,0.0,WeatherDisplay:10.37,2013-05-29 04:21:00,
2013-05-29 00:26:00,69.7,68.2,29.79,NNE,25,3.5,3.5,95,0.18,RA,,0.05,0.0,WeatherDisplay:10.37,2013-05-29 04:26:00,
2013-05-29 00:31:00,69.6,68.1,29.78,ENE,75,2.3,2.3,95,0.18,RA,,0.05,0.0,WeatherDisplay:10.37,2013-05-29 04:31:00,
2013-05-29 00:36:00,69.4,67.9,29.78,WSW,249,5.0,5.0,95,0.18,,,0.05,0.0,WeatherDisplay:10.37,2013-05-29 04:36:00,
2013-05-29 00:41:00,69.4,68.2,29.80,South,184,6.0,6.0,96,0.22,RA,,0.09,0.0,WeatherDisplay:10.37,2013-05-29 04:41:00,
2013-05-29 00:46:00,69.5,68.3,29.78,West,281,15.0,15.0,96,0.31,RA,,0.18,0.0,WeatherDisplay:10.37,2013-05-29 04:46:00,
2013-05-29 00:51:00,69.7,68.5,29.78,SSW,210,3.0,3.0,96,0.29,RA,,0.18,0.0,WeatherDisplay:10.37,2013-05-29 04:51:00,
2013-05-29 00:56:00,69.6,68.4,29.79,SW,225,4.6,4.6,96,0.21,RA,,0.19,0.0,WeatherDisplay:10.37,2013-05-29 04:56:00,
2013-05-29 01:01:00,69.5,68.3,29.79,West,272,3.5,3.5,96,0.19,RA,,0.19,0.0,WeatherDisplay:10.37,2013-05-29 05:01:00,
2013-05-29 01:06:00,69.5,68.3,29.80,West,259,3.5,3.5,96,0.19,RA,,0.20,0.0,WeatherDisplay:10.37,2013-05-29 05:06:00,
2013-05-29 01:11:00,69.5,68.3,29.80,WNW,298,4.0,4.0,96,0.18,RA,,0.20,0.0,WeatherDisplay:10.37,2013-05-29 05:11:00,
2013-05-29 01:16:00,69.4,68.2,29.80,NW,304,3.5,3.5,96,0.21,RA,,0.25,0.0,WeatherDisplay:10.37,2013-05-29 05:16:00,
2013-05-29 01:21:00,69.4,68.2,29.79,NW,304,0.0,0.0,96,0.22,RA,,0.26,0.0,WeatherDisplay:10.37,2013-05-29 05:21:00,
2013-05-29 01:26:00,69.4,68.2,29.79,NW,304,2.3,2.3,96,0.22,RA,,0.27,0.0,WeatherDisplay:10.37,2013-05-29 05:26:00,
2013-05-29 01:31:00,69.3,68.1,29.80,WSW,253,2.3,2.3,96,0.22,RA,,0.28,0.0,WeatherDisplay:10.37,2013-05-29 05:31:00,
2013-05-29 01:36:00,69.4,68.2,29.81,WSW,242,16.0,16.0,96,0.25,RA,,0.30,0.0,WeatherDisplay:10.37,2013-05-29 05:36:00,
2013-05-29 01:41:00,69.5,68.3,29.82,SW,236,19.6,19.6,96,0.23,RA,,0.32,0.0,WeatherDisplay:10.37,2013-05-29 05:41:00,
2013-05-29 01:46:00,69.3,67.5,29.81,SW,221,19.6,19.6,94,0.17,RA,,0.35,0.0,WeatherDisplay:10.37,2013-05-29 05:46:00,
2013-05-29 01:51:00,68.9,67.1,29.80,WSW,257,11.5,11.5,94,0.17,RA,,0.35,0.0,WeatherDisplay:10.37,2013-05-29 05:51:00,
2013-05-29 01:56:00,68.5,66.4,29.79,WSW,254,4.6,4.6,93,0.16,,,0.35,0.0,WeatherDisplay:10.37,2013-05-29 05:56:00,
2013-05-29 02:01:00,68.0,65.3,29.77,WNW,295,4.6,4.6,91,0.16,CLR,,0.35,0.0,WeatherDisplay:10.37,2013-05-29 06:01:00,
2013-05-29 02:06:00,67.6,64.9,29.75,WSW,249,3.5,3.5,91,0.15,CLR,,0.35,0.0,WeatherDisplay:10.37,2013-05-29 06:06:00,
2013-05-29 02:11:00,67.4,64.7,29.73,SSW,195,3.5,3.5,91,0.15,CLR,,0.35,0.0,WeatherDisplay:10.37,2013-05-29 06:11:00,
2013-05-29 02:16:00,67.2,64.8,29.75,SW,215,8.1,8.1,92,0.10,CLR,,0.35,0.0,WeatherDisplay:10.37,2013-05-29 06:16:00,
2013-05-29 02:21:00,66.9,64.5,29.74,SSW,193,6.9,6.9,92,0.09,CLR,,0.35,0.0,WeatherDisplay:10.37,2013-05-29 06:21:00,
2013-05-29 02:26:00,66.7,64.3,29.73,SSW,193,2.3,2.3,92,0.08,CLR,,0.35,0.0,WeatherDisplay:10.37,2013-05-29 06:26:00,
2013-05-29 02:31:00,66.5,64.4,29.74,South,180,5.8,5.8,93,0.07,CLR,,0.35,0.0,WeatherDisplay:10.37,2013-05-29 06:31:00,
2013-05-29 02:36:00,66.2,64.1,29.74,SSW,202,5.0,5.0,93,0.05,CLR,,0.35,0.0,WeatherDisplay:10.37,2013-05-29 06:36:00,
2013-05-29 02:41:00,66.1,64.3,29.73,SSW,192,3.5,3.5,94,0.03,CLR,,0.35,0.0,WeatherDisplay:10.37,2013-05-29 06:41:00,
2013-05-29 02:46:00,65.9,64.1,29.74,SSW,212,4.0,4.0,94,0.00,CLR,,0.35,0.0,WeatherDisplay:10.37,2013-05-29 06:46:00,
2013-05-29 02:51:00,65.8,64.0,29.75,SW,215,3.5,3.5,94,0.00,CLR,,0.35,0.0,WeatherDisplay:10.37,2013-05-29 06:51:00,
2013-05-29 02:56:00,65.7,63.9,29.76,SW,222,4.6,4.6,94,0.00,CLR,,0.35,0.0,WeatherDisplay:10.37,2013-05-29 06:56:00,
2013-05-29 03:01:00,65.6,63.8,29.77,SW,217,6.9,6.9,94,0.00,CLR,,0.35,0.0,WeatherDisplay:10.37,2013-05-29 07:01:00,
2013-05-29 03:06:00,65.6,63.8,29.77,SSW,202,6.9,6.9,94,0.00,CLR,,0.35,0.0,WeatherDisplay:10.37,2013-05-29 07:06:00,
2013-05-29 03:11:00,65.7,63.9,29.78,South,182,5.8,5.8,94,0.00,CLR,,0.35,0.0,WeatherDisplay:10.37,2013-05-29 07:11:00,
2013-05-29 03:16:00,65.6,63.8,29.78,South,182,6.9,6.9,94,0.00,CLR,,0.35,0.0,WeatherDisplay:10.37,2013-05-29 07:16:00,
2013-05-29 03:21:00,65.6,63.8,29.79,SW,215,5.8,5.8,94,0.00,CLR,,0.35,0.0,WeatherDisplay:10.37,2013-05-29 07:21:00,
2013-05-29 03:26:00,65.5,63.7,29.80,SW,220,5.8,5.8,94,0.00,CLR,,0.35,0.0,WeatherDisplay:10.37,2013-05-29 07:26:00,
2013-05-29 03:31:00,65.4,63.6,29.80,SSW,213,3.5,3.5,94,0.00,CLR,,0.35,0.0,WeatherDisplay:10.37,2013-05-29 07:31:00,
2013-05-29 03:36:00,65.5,63.7,29.80,SSW,200,5.0,5.0,94,0.00,CLR,,0.35,0.0,WeatherDisplay:10.37,2013-05-29 07:36:00,
2013-05-29 03:41:00,65.5,63.4,29.81,SSW,212,9.2,9.2,93,0.00,CLR,,0.35,0.0,WeatherDisplay:10.37,2013-05-29 07:41:00,
2013-05-29 03:46:00,65.5,63.4,29.82,SW,225,9.2,9.2,93,0.00,CLR,,0.35,0.0,WeatherDisplay:10.37,2013-05-29 07:46:00,
2013-05-29 03:51:00,65.5,63.4,29.82,SSW,209,11.5,11.5,93,0.00,CLR,,0.35,0.0,WeatherDisplay:10.37,2013-05-29 07:51:00,
2013-05-29 03:56:00,65.5,63.4,29.82,SW,234,4.6,4.6,93,0.00,CLR,,0.35,0.0,WeatherDisplay:10.37,2013-05-29 07:56:00,
2013-05-29 04:01:00,65.5,63.4,29.82,WSW,248,8.1,8.1,93,0.00,CLR,,0.35,0.0,WeatherDisplay:10.37,2013-05-29 08:01:00,
2013-05-29 04:06:00,65.5,63.4,29.83,SW,235,4.6,4.6,93,0.00,CLR,,0.35,0.0,WeatherDisplay:10.37,2013-05-29 08:06:00,
2013-05-29 04:11:00,65.5,63.4,29.83,WSW,245,4.0,4.0,93,0.00,CLR,,0.35,0.0,WeatherDisplay:10.37,2013-05-29 08:11:00,
2013-05-29 04:17:00,65.4,63.3,29.83,West,269,4.0,4.0,93,0.00,CLR,,0.35,0.0,WeatherDisplay:10.37,2013-05-29 08:17:00,
2013-05-29 04:22:00,65.4,63.3,29.83,WSW,244,2.3,2.3,93,0.00,CLR,,0.35,0.0,WeatherDisplay:10.37,2013-05-29 08:22:00,
2013-05-29 04:27:00,65.3,63.2,29.83,SSW,213,4.0,4.0,93,0.00,CLR,,0.35,0.0,WeatherDisplay:10.37,2013-05-29 08:27:00,
2013-05-29 04:32:00,65.2,63.1,29.83,SW,225,5.8,5.8,93,0.00,CLR,,0.35,0.0,WeatherDisplay:10.37,2013-05-29 08:32:00,
2013-05-29 04:37:00,65.1,63.3,29.83,SSW,213,6.0,6.0,94,0.00,CLR,,0.35,0.0,WeatherDisplay:10.37,2013-05-29 08:37:00,
2013-05-29 04:42:00,65.0,63.2,29.83,SW,236,2.3,2.3,94,0.00,CLR,,0.35,0.0,WeatherDisplay:10.37,2013-05-29 08:42:00,
2013-05-29 04:47:00,64.8,63.0,29.83,SW,236,2.3,2.3,94,0.00,CLR,,0.35,0.0,WeatherDisplay:10.37,2013-05-29 08:47:00,
2013-05-29 04:52:00,64.7,62.9,29.84,SW,236,2.3,2.3,94,0.00,CLR,,0.35,0.0,WeatherDisplay:10.37,2013-05-29 08:52:00,
2013-05-29 04:57:00,64.5,62.7,29.84,SW,236,0.0,0.0,94,0.00,CLR,,0.35,0.0,WeatherDisplay:10.37,2013-05-29 08:57:00,
2013-05-29 05:02:00,64.4,62.6,29.83,SW,236,3.5,3.5,94,0.00,CLR,,0.35,0.0,WeatherDisplay:10.37,2013-05-29 09:02:00,
2013-05-29 05:07:00,64.2,62.4,29.84,SW,236,2.0,2.0,94,0.00,CLR,,0.35,0.0,WeatherDisplay:10.37,2013-05-29 09:07:00,
2013-05-29 05:12:00,63.9,62.1,29.83,SW,236,1.1,1.1,94,0.00,CLR,,0.35,0.0,WeatherDisplay:10.37,2013-05-29 09:12:00,
2013-05-29 05:17:00,63.8,62.3,29.84,SSW,207,3.5,3.5,95,0.00,CLR,,0.35,0.0,WeatherDisplay:10.37,2013-05-29 09:17:00,
2013-05-29 05:22:00,63.8,62.3,29.83,SSW,196,3.5,3.5,95,0.00,CLR,,0.35,0.0,WeatherDisplay:10.37,2013-05-29 09:22:00,
2013-05-29 05:27:00,63.7,62.2,29.84,South,189,3.5,3.5,95,0.00,CLR,,0.35,0.0,WeatherDisplay:10.37,2013-05-29 09:27:00,
2013-05-29 05:32:00,63.7,62.2,29.84,SSW,201,3.5,3.5,95,0.01,RA,,0.36,0.0,WeatherDisplay:10.37,2013-05-29 09:32:00,
2013-05-29 05:37:00,63.8,62.6,29.84,SSW,194,3.5,3.5,96,0.01,RA,,0.36,0.0,WeatherDisplay:10.37,2013-05-29 09:37:00,
2013-05-29 05:42:00,63.7,62.2,29.84,SSW,198,1.1,1.1,95,0.01,CLR,,0.36,0.0,WeatherDisplay:10.37,2013-05-29 09:42:00,
2013-05-29 05:47:00,63.7,62.2,29.84,SSW,203,3.5,3.5,95,0.01,CLR,,0.36,0.0,WeatherDisplay:10.37,2013-05-29 09:47:00,
2013-05-29 05:52:00,63.7,62.2,29.84,SW,215,4.0,4.0,95,0.01,CLR,,0.36,0.0,WeatherDisplay:10.37,2013-05-29 09:52:00,
2013-05-29 05:57:00,63.8,62.3,29.84,SSW,192,3.5,3.5,95,0.01,CLR,,0.36,0.0,WeatherDisplay:10.37,2013-05-29 09:57:00,
2013-05-29 06:02:00,63.8,62.3,29.84,SSW,195,3.5,3.5,95,0.01,CLR,,0.36,0.0,WeatherDisplay:10.37,2013-05-29 10:02:00,
2013-05-29 06:07:00,63.9,62.4,29.84,South,185,3.5,3.5,95,0.01,CLR,,0.36,0.0,WeatherDisplay:10.37,2013-05-29 10:07:00,
2013-05-29 06:12:00,64.0,62.2,29.83,South,177,3.5,3.5,94,0.01,CLR,,0.36,5.0,WeatherDisplay:10.37,2013-05-29 10:12:00,
2013-05-29 06:17:00,64.1,62.3,29.83,SSW,200,3.5,3.5,94,0.01,CLR,,0.36,7.0,WeatherDisplay:10.37,2013-05-29 10:17:00,
2013-05-29 06:22:00,64.1,62.3,29.84,South,186,3.5,3.5,94,0.01,CLR,,0.36,11.0,WeatherDisplay:10.37,2013-05-29 10:22:00,
2013-05-29 06:27:00,64.1,62.3,29.84,SSW,207,5.8,5.8,94,0.01,CLR,,0.36,16.0,WeatherDisplay:10.37,2013-05-29 10:27:00,
2013-05-29 06:32:00,64.2,62.1,29.84,SSW,205,5.8,5.8,93,0.00,CLR,,0.36,19.0,WeatherDisplay:10.37,2013-05-29 10:32:00,
2013-05-29 06:37:00,64.4,62.3,29.84,SSW,205,4.6,4.6,93,0.00,CLR,,0.36,26.0,WeatherDisplay:10.37,2013-05-29 10:37:00,
2013-05-29 06:42:00,64.5,62.4,29.84,SSW,205,3.5,3.5,93,0.00,CLR,,0.36,28.0,WeatherDisplay:10.37,2013-05-29 10:42:00,
2013-05-29 06:47:00,64.6,62.5,29.84,SSW,208,3.5,3.5,93,0.00,CLR,,0.36,33.0,WeatherDisplay:10.37,2013-05-29 10:47:00,
2013-05-29 06:52:00,64.8,62.7,29.85,SSW,207,3.5,3.5,93,0.00,CLR,,0.36,26.0,WeatherDisplay:10.37,2013-05-29 10:52:00,
2013-05-29 06:57:00,65.0,62.9,29.85,SSW,207,7.0,7.0,93,0.00,CLR,,0.36,21.0,WeatherDisplay:10.37,2013-05-29 10:57:00,
2013-05-29 07:02:00,65.2,63.1,29.85,SW,221,3.5,3.5,93,0.00,CLR,,0.36,40.0,WeatherDisplay:10.37,2013-05-29 11:02:00,
2013-05-29 07:07:00,65.4,63.3,29.85,SW,217,5.8,5.8,93,0.00,CLR,,0.36,42.0,WeatherDisplay:10.37,2013-05-29 11:07:00,
2013-05-29 07:12:00,65.6,63.5,29.85,SW,215,3.5,3.5,93,0.00,CLR,,0.36,47.0,WeatherDisplay:10.37,2013-05-29 11:12:00,
2013-05-29 07:17:00,65.8,63.4,29.86,SW,236,3.5,3.5,92,0.00,CLR,,0.36,16.0,WeatherDisplay:10.37,2013-05-29 11:17:00,
2013-05-29 07:22:00,66.0,63.6,29.86,West,269,5.8,5.8,92,0.00,CLR,,0.36,23.0,WeatherDisplay:10.37,2013-05-29 11:22:00,
2013-05-29 07:27:00,66.1,63.7,29.85,SSW,205,4.6,4.6,92,0.00,CLR,,0.36,39.0,WeatherDisplay:10.37,2013-05-29 11:27:00,
2013-05-29 07:32:00,66.2,63.8,29.85,South,189,4.6,4.6,92,0.00,CLR,,0.36,28.0,WeatherDisplay:10.37,2013-05-29 11:32:00,
2013-05-29 07:37:00,66.3,63.9,29.84,SSW,192,4.6,4.6,92,0.00,CLR,,0.36,49.0,WeatherDisplay:10.37,2013-05-29 11:37:00,
2013-05-29 07:42:00,66.5,64.1,29.85,SSW,202,4.6,4.6,92,0.00,CLR,,0.36,37.0,WeatherDisplay:10.37,2013-05-29 11:42:00,
2013-05-29 07:47:00,66.6,64.2,29.85,SW,219,5.8,5.8,92,0.00,CLR,,0.36,46.0,WeatherDisplay:10.37,2013-05-29 11:47:00,
2013-05-29 07:52:00,66.7,64.3,29.86,SSW,198,5.8,5.8,92,0.00,CLR,,0.36,58.0,WeatherDisplay:10.37,2013-05-29 11:52:00,
2013-05-29 07:57:00,66.9,64.5,29.86,SSW,199,5.8,5.8,92,0.00,CLR,,0.36,51.0,WeatherDisplay:10.37,2013-05-29 11:57:00,
2013-05-29 08:02:00,67.1,64.7,29.86,SW,221,8.1,8.1,92,0.00,OVC,,0.36,32.0,WeatherDisplay:10.37,2013-05-29 12:02:00,
2013-05-29 08:07:00,67.3,64.9,29.86,WSW,252,6.9,6.9,92,0.00,OVC,,0.36,56.0,WeatherDisplay:10.37,2013-05-29 12:07:00,
2013-05-29 08:12:00,67.5,64.8,29.86,SW,229,6.9,6.9,91,0.00,OVC,,0.36,32.0,WeatherDisplay:10.37,2013-05-29 12:12:00,
2013-05-29 08:17:00,67.7,65.0,29.86,SW,236,5.0,5.0,91,0.00,OVC,,0.36,53.0,WeatherDisplay:10.37,2013-05-29 12:17:00,
2013-05-29 08:22:00,67.9,65.2,29.86,SSW,205,6.9,6.9,91,0.00,OVC,,0.36,54.0,WeatherDisplay:10.37,2013-05-29 12:22:00,
2013-05-29 08:27:00,68.1,65.4,29.86,WSW,244,7.0,7.0,91,0.00,OVC,,0.36,149.0,WeatherDisplay:10.37,2013-05-29 12:27:00,
2013-05-29 08:32:00,68.5,65.4,29.86,SW,227,10.4,10.4,90,0.00,OVC,,0.36,98.0,WeatherDisplay:10.37,2013-05-29 12:32:00,
2013-05-29 08:37:00,68.8,65.7,29.86,WSW,244,11.5,11.5,90,0.00,OVC,,0.36,76.0,WeatherDisplay:10.37,2013-05-29 12:37:00,
2013-05-29 08:42:00,68.9,65.8,29.86,SW,221,9.2,9.2,90,0.00,OVC,,0.36,104.0,WeatherDisplay:10.37,2013-05-29 12:42:00,
2013-05-29 08:47:00,69.0,65.6,29.87,SW,217,13.0,13.0,89,0.00,OVC,,0.36,81.0,WeatherDisplay:10.37,2013-05-29 12:47:00,
2013-05-29 08:52:00,69.2,65.5,29.87,SW,225,11.5,11.5,88,0.01,RA,,0.37,86.0,WeatherDisplay:10.37,2013-05-29 12:52:00,
2013-05-29 08:57:00,69.4,65.7,29.87,SW,231,9.2,9.2,88,0.01,RA,,0.37,185.0,WeatherDisplay:10.37,2013-05-29 12:57:00,
2013-05-29 09:02:00,69.9,66.2,29.87,SW,215,16.1,16.1,88,0.01,OVC,,0.37,218.0,WeatherDisplay:10.37,2013-05-29 13:02:00,
2013-05-29 09:07:00,70.3,66.2,29.87,WSW,246,9.2,9.2,87,0.01,OVC,,0.37,251.0,WeatherDisplay:10.37,2013-05-29 13:07:00,
2013-05-29 09:12:00,71.0,66.9,29.87,WSW,252,12.7,12.7,87,0.01,OVC,,0.37,192.0,WeatherDisplay:10.37,2013-05-29 13:12:00,
2013-05-29 09:17:00,71.4,66.7,29.87,WSW,247,21.0,21.0,85,0.01,OVC,,0.37,163.0,WeatherDisplay:10.37,2013-05-29 13:17:00,
2013-05-29 09:22:00,71.5,66.4,29.87,WSW,250,13.8,13.8,84,0.01,OVC,,0.37,211.0,WeatherDisplay:10.37,2013-05-29 13:22:00,
2013-05-29 09:27:00,71.8,67.0,29.87,WSW,241,12.7,12.7,85,0.01,OVC,,0.37,260.0,WeatherDisplay:10.37,2013-05-29 13:27:00,
2013-05-29 09:32:00,72.0,67.2,29.87,SW,232,11.5,11.5,85,0.01,OVC,,0.37,251.0,WeatherDisplay:10.37,2013-05-29 13:32:00,
2013-05-29 09:37:00,72.2,67.4,29.87,SW,232,10.4,10.4,85,0.01,OVC,,0.37,367.0,WeatherDisplay:10.37,2013-05-29 13:37:00,
2013-05-29 09:42:00,72.4,67.3,29.87,SW,229,19.6,19.6,84,0.01,OVC,,0.37,227.0,WeatherDisplay:10.37,2013-05-29 13:42:00,
2013-05-29 09:48:00,72.4,67.3,29.87,West,261,11.5,11.5,84,0.01,OVC,,0.37,323.0,WeatherDisplay:10.37,2013-05-29 13:48:00,
2013-05-29 09:53:00,72.6,67.5,29.87,West,263,13.8,13.8,84,0.00,OVC,,0.37,188.0,WeatherDisplay:10.37,2013-05-29 13:53:00,
2013-05-29 09:58:00,72.5,67.0,29.87,West,267,19.6,19.6,83,0.00,OVC,,0.37,207.0,WeatherDisplay:10.37,2013-05-29 13:58:00,
2013-05-29 10:03:00,72.5,67.0,29.87,West,267,13.8,13.8,83,0.00,OVC,,0.37,248.0,WeatherDisplay:10.37,2013-05-29 14:03:00,
2013-05-29 10:08:00,72.8,67.7,29.87,WSW,250,9.2,9.2,84,0.00,OVC,,0.37,483.0,WeatherDisplay:10.37,2013-05-29 14:08:00,
2013-05-29 10:13:00,73.2,67.7,29.87,SW,227,11.5,11.5,83,0.00,OVC,,0.37,299.0,WeatherDisplay:10.37,2013-05-29 14:13:00,
2013-05-29 10:18:00,73.1,67.6,29.87,WSW,248,8.1,8.1,83,0.00,OVC,,0.37,302.0,WeatherDisplay:10.37,2013-05-29 14:18:00,
2013-05-29 10:23:00,72.8,67.0,29.87,West,262,21.0,21.0,82,0.00,OVC,,0.37,162.0,WeatherDisplay:10.37,2013-05-29 14:23:00,
2013-05-29 10:28:00,72.6,66.8,29.87,SW,216,13.8,13.8,82,0.00,OVC,,0.37,295.0,WeatherDisplay:10.37,2013-05-29 14:28:00,
2013-05-29 10:33:00,72.8,67.3,29.87,WSW,252,9.2,9.2,83,0.00,OVC,,0.37,311.0,WeatherDisplay:10.37,2013-05-29 14:33:00,
2013-05-29 10:38:00,72.9,67.1,29.87,WSW,243,20.0,20.0,82,0.00,OVC,,0.37,281.0,WeatherDisplay:10.37,2013-05-29 14:38:00,
2013-05-29 10:43:00,72.8,67.0,29.88,WSW,245,10.4,10.4,82,0.00,OVC,,0.37,239.0,WeatherDisplay:10.37,2013-05-29 14:43:00,
2013-05-29 10:48:00,73.3,67.5,29.87,SW,232,8.1,8.1,82,0.00,OVC,,0.37,694.0,WeatherDisplay:10.37,2013-05-29 14:48:00,
2013-05-29 10:53:00,73.7,66.8,29.87,South,190,12.7,12.7,79,0.00,OVC,,0.37,733.0,WeatherDisplay:10.37,2013-05-29 14:53:00,
2013-05-29 10:58:00,74.1,66.8,29.87,SSW,202,11.5,11.5,78,0.00,OVC,,0.37,759.0,WeatherDisplay:10.37,2013-05-29 14:58:00,
2013-05-29 11:03:00,74.7,67.4,29.87,SW,227,10.4,10.4,78,0.00,OVC,,0.37,309.0,WeatherDisplay:10.37,2013-05-29 15:03:00,
2013-05-29 11:08:00,74.6,66.5,29.87,WSW,238,12.7,12.7,76,0.00,CLR,,0.37,856.0,WeatherDisplay:10.37,2013-05-29 15:08:00,
2013-05-29 11:13:00,74.8,66.3,29.87,WSW,244,16.1,16.1,75,0.00,CLR,,0.37,330.0,WeatherDisplay:10.37,2013-05-29 15:13:00,
2013-05-29 11:18:00,74.7,65.9,29.87,WNW,293,13.8,13.8,74,0.00,CLR,,0.37,464.0,WeatherDisplay:10.37,2013-05-29 15:18:00,
2013-05-29 11:23:00,74.4,65.6,29.86,WNW,284,11.5,11.5,74,0.00,CLR,,0.37,308.0,WeatherDisplay:10.37,2013-05-29 15:23:00,
2013-05-29 11:28:00,74.2,65.4,29.87,WSW,254,11.5,11.5,74,0.00,CLR,,0.37,810.0,WeatherDisplay:10.37,2013-05-29 15:28:00,
2013-05-29 11:33:00,74.3,66.2,29.88,WNW,286,13.8,13.8,76,0.00,CLR,,0.37,788.0,WeatherDisplay:10.37,2013-05-29 15:33:00,
2013-05-29 11:38:00,74.4,66.0,29.89,SW,234,11.5,11.5,75,0.00,CLR,,0.37,912.0,WeatherDisplay:10.37,2013-05-29 15:38:00,
2013-05-29 11:43:00,74.8,66.0,29.89,West,269,11.5,11.5,74,0.00,CLR,,0.37,875.0,WeatherDisplay:10.37,2013-05-29 15:43:00,
2013-05-29 11:48:00,75.2,66.7,29.90,WNW,284,8.1,8.1,75,0.00,CLR,,0.37,919.0,WeatherDisplay:10.37,2013-05-29 15:48:00,
2013-05-29 11:53:00,75.5,67.4,29.90,SSW,213,6.9,6.9,76,0.00,CLR,,0.37,919.0,WeatherDisplay:10.37,2013-05-29 15:53:00,
2013-05-29 11:58:00,75.7,66.4,29.90,West,269,13.8,13.8,73,0.00,CLR,,0.37,350.0,WeatherDisplay:10.37,2013-05-29 15:58:00,
2013-05-29 12:03:00,75.3,67.2,29.91,West,267,9.2,9.2,76,0.00,CLR,,0.37,448.0,WeatherDisplay:10.37,2013-05-29 16:03:00,
2013-05-29 12:08:00,75.1,66.6,29.91,WSW,238,12.0,12.0,75,0.00,CLR,,0.37,401.0,WeatherDisplay:10.37,2013-05-29 16:08:00,
2013-05-29 12:13:00,74.9,66.4,29.91,WSW,248,12.7,12.7,75,0.00,CLR,,0.37,371.0,WeatherDisplay:10.37,2013-05-29 16:13:00,
2013-05-29 12:18:00,75.1,66.2,29.91,West,259,11.5,11.5,74,0.00,CLR,,0.37,371.0,WeatherDisplay:10.37,2013-05-29 16:18:00,
2013-05-29 12:23:00,75.5,66.6,29.91,NW,306,10.4,10.4,74,0.00,CLR,,0.37,461.0,WeatherDisplay:10.37,2013-05-29 16:23:00,
2013-05-29 12:28:00,76.1,67.2,29.91,WSW,250,10.4,10.4,74,0.00,CLR,,0.37,921.0,WeatherDisplay:10.37,2013-05-29 16:28:00,
2013-05-29 12:33:00,76.0,67.5,29.92,SSW,207,9.2,9.2,75,0.00,CLR,,0.37,422.0,WeatherDisplay:10.37,2013-05-29 16:33:00,
2013-05-29 12:38:00,76.1,66.4,29.92,WSW,248,11.5,11.5,72,0.00,CLR,,0.37,737.0,WeatherDisplay:10.37,2013-05-29 16:38:00,
2013-05-29 12:43:00,75.7,66.0,29.92,West,269,12.7,12.7,72,0.00,CLR,,0.37,399.0,WeatherDisplay:10.37,2013-05-29 16:43:00,
2013-05-29 12:48:00,75.4,66.5,29.92,SW,222,11.5,11.5,74,0.00,CLR,,0.37,410.0,WeatherDisplay:10.37,2013-05-29 16:48:00,
2013-05-29 12:53:00,75.6,65.9,29.93,SSW,207,12.0,12.0,72,0.00,CLR,,0.37,517.0,WeatherDisplay:10.37,2013-05-29 16:53:00,
2013-05-29 12:58:00,75.6,66.7,29.93,WSW,249,9.2,9.2,74,0.00,CLR,,0.37,387.0,WeatherDisplay:10.37,2013-05-29 16:58:00,
2013-05-29 13:03:00,75.7,66.8,29.93,SW,214,9.2,9.2,74,0.00,CLR,,0.37,406.0,WeatherDisplay:10.37,2013-05-29 17:03:00,
2013-05-29 13:08:00,76.2,67.3,29.93,WSW,252,8.1,8.1,74,0.00,CLR,,0.37,728.0,WeatherDisplay:10.37,2013-05-29 17:08:00,
2013-05-29 13:13:00,76.5,66.8,29.93,SW,216,11.5,11.5,72,0.00,CLR,,0.37,1032.0,WeatherDisplay:10.37,2013-05-29 17:13:00,
2013-05-29 13:18:00,76.9,67.6,29.93,SW,219,9.2,9.2,73,0.00,CLR,,0.37,933.0,WeatherDisplay:10.37,2013-05-29 17:18:00,
2013-05-29 13:23:00,77.3,67.6,29.93,WSW,238,12.7,12.7,72,0.00,CLR,,0.37,1032.0,WeatherDisplay:10.37,2013-05-29 17:23:00,
2013-05-29 13:28:00,77.3,67.2,29.93,SW,228,13.0,13.0,71,0.00,CLR,,0.37,329.0,WeatherDisplay:10.37,2013-05-29 17:28:00,
2013-05-29 13:33:00,77.0,66.9,29.93,West,259,11.5,11.5,71,0.00,CLR,,0.37,439.0,WeatherDisplay:10.37,2013-05-29 17:33:00,
2013-05-29 13:38:00,77.1,67.0,29.93,WSW,239,11.5,11.5,71,0.00,CLR,,0.37,448.0,WeatherDisplay:10.37,2013-05-29 17:38:00,
2013-05-29 13:43:00,77.5,68.2,29.93,SSW,206,11.5,11.5,73,0.00,CLR,,0.37,935.0,WeatherDisplay:10.37,2013-05-29 17:43:00,
2013-05-29 13:48:00,78.0,67.8,29.93,SW,215,11.5,11.5,71,0.00,CLR,,0.37,933.0,WeatherDisplay:10.37,2013-05-29 17:48:00,
2013-05-29 13:53:00,77.9,67.3,29.93,SW,223,18.4,18.4,70,0.00,CLR,,0.37,1060.0,WeatherDisplay:10.37,2013-05-29 17:53:00,
2013-05-29 13:58:00,77.8,66.8,29.93,WNW,298,16.1,16.1,69,0.00,FEW,,0.37,357.0,WeatherDisplay:10.37,2013-05-29 17:58:00,
2013-05-29 14:03:00,77.6,66.6,29.93,WSW,243,11.5,11.5,69,0.00,CLR,,0.37,1102.0,WeatherDisplay:10.37,2013-05-29 18:03:00,
2013-05-29 14:08:00,77.9,68.1,29.93,SW,215,6.9,6.9,72,0.00,CLR,,0.37,1051.0,WeatherDisplay:10.37,2013-05-29 18:08:00,
2013-05-29 14:13:00,77.8,66.8,29.93,SW,225,12.7,12.7,69,0.00,CLR,,0.37,1000.0,WeatherDisplay:10.37,2013-05-29 18:13:00,
2013-05-29 14:18:00,77.7,67.1,29.93,SSW,203,12.7,12.7,70,0.00,CLR,,0.37,1053.0,WeatherDisplay:10.37,2013-05-29 18:18:00,
2013-05-29 14:23:00,77.9,67.3,29.93,WSW,240,11.0,11.0,70,0.00,CLR,,0.37,1090.0,WeatherDisplay:10.37,2013-05-29 18:23:00,
2013-05-29 14:28:00,78.0,67.0,29.93,WSW,246,10.4,10.4,69,0.00,SCT,,0.37,364.0,WeatherDisplay:10.37,2013-05-29 18:28:00,
2013-05-29 14:33:00,78.3,68.5,29.93,WSW,247,11.5,11.5,72,0.00,CLR,,0.37,1055.0,WeatherDisplay:10.37,2013-05-29 18:33:00,
2013-05-29 14:38:00,78.4,67.4,29.94,SSW,212,11.5,11.5,69,0.00,CLR,,0.37,997.0,WeatherDisplay:10.37,2013-05-29 18:38:00,
2013-05-29 14:43:00,78.5,67.1,29.94,SW,223,11.5,11.5,68,0.00,CLR,,0.37,1032.0,WeatherDisplay:10.37,2013-05-29 18:43:00,
2013-05-29 14:48:00,78.7,66.4,29.93,WSW,239,13.8,13.8,66,0.00,CLR,,0.37,888.0,WeatherDisplay:10.37,2013-05-29 18:48:00,
2013-05-29 14:53:00,78.6,67.2,29.94,WSW,244,10.4,10.4,68,0.00,BKN,,0.37,285.0,WeatherDisplay:10.37,2013-05-29 18:53:00,
2013-05-29 14:58:00,79.2,68.1,29.94,WSW,242,9.0,9.0,69,0.00,CLR,,0.37,965.0,WeatherDisplay:10.37,2013-05-29 18:58:00,
2013-05-29 15:03:00,79.2,68.1,29.94,WNW,293,6.9,6.9,69,0.00,CLR,,0.37,264.0,WeatherDisplay:10.37,2013-05-29 19:03:00,
2013-05-29 15:08:00,78.7,67.2,29.94,WSW,237,11.5,11.5,68,0.00,BKN,,0.37,264.0,WeatherDisplay:10.37,2013-05-29 19:08:00,
2013-05-29 15:13:00,78.5,67.1,29.94,WSW,252,10.4,10.4,68,0.00,CLR,,0.37,977.0,WeatherDisplay:10.37,2013-05-29 19:13:00,
2013-05-29 15:18:00,79.2,66.9,29.93,SW,235,10.4,10.4,66,0.00,CLR,,0.37,905.0,WeatherDisplay:10.37,2013-05-29 19:18:00,
2013-05-29 15:23:00,79.4,67.5,29.93,SSW,201,8.1,8.1,67,0.00,CLR,,0.37,946.0,WeatherDisplay:10.37,2013-05-29 19:23:00,
2013-05-29 15:28:00,79.8,67.0,29.94,WSW,257,11.5,11.5,65,0.00,FEW,,0.37,974.0,WeatherDisplay:10.37,2013-05-29 19:28:00,
2013-05-29 15:33:00,79.7,66.4,29.93,SW,236,11.5,11.5,64,0.00,BKN,,0.37,338.0,WeatherDisplay:10.37,2013-05-29 19:33:00,
2013-05-29 15:38:00,79.3,66.5,29.93,SW,226,9.2,9.2,65,0.00,CLR,,0.37,1046.0,WeatherDisplay:10.37,2013-05-29 19:38:00,
2013-05-29 15:43:00,79.5,67.1,29.93,WNW,294,7.0,7.0,66,0.00,SCT,,0.37,427.0,WeatherDisplay:10.37,2013-05-29 19:43:00,
2013-05-29 15:48:00,79.5,67.1,29.93,WSW,251,10.4,10.4,66,0.00,SCT,,0.37,487.0,WeatherDisplay:10.37,2013-05-29 19:48:00,
2013-05-29 15:53:00,79.8,68.3,29.93,NW,315,6.9,6.9,68,0.00,CLR,,0.37,775.0,WeatherDisplay:10.37,2013-05-29 19:53:00,
2013-05-29 15:58:00,80.0,67.6,29.93,NNW,335,9.0,9.0,66,0.00,SCT,,0.37,522.0,WeatherDisplay:10.37,2013-05-29 19:58:00,
2013-05-29 16:03:00,80.0,67.2,29.93,West,277,11.5,11.5,65,0.00,FEW,,0.37,1009.0,WeatherDisplay:10.37,2013-05-29 20:03:00,
2013-05-29 16:08:00,80.1,67.3,29.93,West,264,6.9,6.9,65,0.00,CLR,,0.37,889.0,WeatherDisplay:10.37,2013-05-29 20:08:00,
2013-05-29 16:13:00,80.6,67.3,29.93,WSW,251,11.5,11.5,64,0.00,CLR,,0.37,900.0,WeatherDisplay:10.37,2013-05-29 20:13:00,
2013-05-29 16:18:00,80.4,67.6,29.93,WSW,257,3.5,3.5,65,0.00,BKN,,0.37,304.0,WeatherDisplay:10.37,2013-05-29 20:18:00,
2013-05-29 16:23:00,80.1,67.3,29.93,West,275,6.9,6.9,65,0.00,BKN,,0.37,325.0,WeatherDisplay:10.37,2013-05-29 20:23:00,
2013-05-29 16:28:00,80.4,68.4,29.92,West,273,5.0,5.0,67,0.00,CLR,,0.37,898.0,WeatherDisplay:10.37,2013-05-29 20:28:00,
2013-05-29 16:33:00,80.2,66.5,29.93,West,274,11.5,11.5,63,0.00,BKN,,0.37,325.0,WeatherDisplay:10.37,2013-05-29 20:33:00,
2013-05-29 16:38:00,79.3,67.0,29.93,WSW,258,5.8,5.8,66,0.00,BKN,,0.37,281.0,WeatherDisplay:10.37,2013-05-29 20:38:00,
2013-05-29 16:43:00,79.0,67.1,29.93,West,259,4.6,4.6,67,0.00,BKN,,0.37,265.0,WeatherDisplay:10.37,2013-05-29 20:43:00,
2013-05-29 16:48:00,78.7,65.9,29.94,WNW,285,13.8,13.8,65,0.00,BKN,,0.37,223.0,WeatherDisplay:10.37,2013-05-29 20:48:00,
2013-05-29 16:53:00,78.4,66.5,29.93,SW,227,9.2,9.2,67,0.00,BKN,,0.37,306.0,WeatherDisplay:10.37,2013-05-29 20:53:00,
2013-05-29 16:58:00,78.5,66.6,29.93,WNW,293,10.4,10.4,67,0.00,BKN,,0.37,262.0,WeatherDisplay:10.37,2013-05-29 20:58:00,
2013-05-29 17:03:00,78.7,66.8,29.93,West,274,4.6,4.6,67,0.00,CLR,,0.37,907.0,WeatherDisplay:10.37,2013-05-29 21:03:00,
2013-05-29 17:08:00,79.3,67.8,29.93,WNW,298,6.9,6.9,68,0.00,BKN,,0.37,316.0,WeatherDisplay:10.37,2013-05-29 21:08:00,
2013-05-29 17:13:00,79.3,67.4,29.94,WSW,242,10.4,10.4,67,0.00,BKN,,0.37,336.0,WeatherDisplay:10.37,2013-05-29 21:13:00,
2013-05-29 17:18:00,79.1,65.9,29.94,SW,231,11.5,11.5,64,0.00,BKN,,0.37,313.0,WeatherDisplay:10.37,2013-05-29 21:18:00,
2013-05-29 17:23:00,78.8,66.5,29.93,NW,321,9.2,9.2,66,0.00,BKN,,0.37,255.0,WeatherDisplay:10.37,2013-05-29 21:23:00,
2013-05-29 17:28:00,78.6,66.3,29.94,West,265,9.2,9.2,66,0.00,BKN,,0.37,255.0,WeatherDisplay:10.37,2013-05-29 21:28:00,
2013-05-29 17:33:00,78.4,66.1,29.94,West,267,10.4,10.4,66,0.00,BKN,,0.37,323.0,WeatherDisplay:10.37,2013-05-29 21:33:00,
2013-05-29 17:38:00,78.4,67.0,29.94,WNW,292,8.0,8.0,68,0.00,BKN,,0.37,248.0,WeatherDisplay:10.37,2013-05-29 21:38:00,
2013-05-29 17:43:00,78.5,67.1,29.94,WNW,292,4.6,4.6,68,0.00,BKN,,0.37,232.0,WeatherDisplay:10.37,2013-05-29 21:43:00,
2013-05-29 17:48:00,78.8,68.2,29.94,WSW,257,4.6,4.6,70,0.00,SCT,,0.37,710.0,WeatherDisplay:10.37,2013-05-29 21:48:00,
2013-05-29 17:53:00,79.3,67.4,29.94,SSW,207,9.2,9.2,67,0.00,BKN,,0.37,269.0,WeatherDisplay:10.37,2013-05-29 21:53:00,
2013-05-29 17:58:00,79.2,66.4,29.94,West,261,8.1,8.1,65,0.00,BKN,,0.37,396.0,WeatherDisplay:10.37,2013-05-29 21:58:00,
2013-05-29 18:03:00,79.1,67.6,29.94,WSW,237,6.9,6.9,68,0.00,BKN,,0.37,171.0,WeatherDisplay:10.37,2013-05-29 22:03:00,
2013-05-29 18:08:00,79.1,67.6,29.94,SW,233,4.6,4.6,68,0.00,BKN,,0.37,320.0,WeatherDisplay:10.37,2013-05-29 22:08:00,
2013-05-29 18:13:00,79.1,66.3,29.94,SW,225,7.0,7.0,65,0.00,BKN,,0.37,250.0,WeatherDisplay:10.37,2013-05-29 22:13:00,
2013-05-29 18:18:00,78.9,67.0,29.94,SW,223,3.5,3.5,67,0.00,BKN,,0.37,185.0,WeatherDisplay:10.37,2013-05-29 22:18:00,
2013-05-29 18:23:00,78.7,66.4,29.94,SW,233,5.0,5.0,66,0.00,BKN,,0.37,155.0,WeatherDisplay:10.37,2013-05-29 22:23:00,
2013-05-29 18:28:00,78.7,66.8,29.93,SW,216,6.9,6.9,67,0.00,BKN,,0.37,141.0,WeatherDisplay:10.37,2013-05-29 22:28:00,
2013-05-29 18:33:00,78.9,66.1,29.93,South,175,6.9,6.9,65,0.00,BKN,,0.37,527.0,WeatherDisplay:10.37,2013-05-29 22:33:00,
2013-05-29 18:38:00,79.6,67.2,29.93,West,262,4.6,4.6,66,0.00,BKN,,0.37,441.0,WeatherDisplay:10.37,2013-05-29 22:38:00,
2013-05-29 18:43:00,80.0,66.3,29.93,SW,222,8.1,8.1,63,0.00,BKN,,0.37,385.0,WeatherDisplay:10.37,2013-05-29 22:43:00,
2013-05-29 18:48:00,79.9,65.7,29.93,SW,232,8.0,8.0,62,0.00,BKN,,0.37,332.0,WeatherDisplay:10.37,2013-05-29 22:48:00,
2013-05-29 18:53:00,79.5,65.8,29.93,WSW,248,5.8,5.8,63,0.00,BKN,,0.37,69.0,WeatherDisplay:10.37,2013-05-29 22:53:00,
2013-05-29 18:58:00,78.8,66.0,29.93,SW,224,3.5,3.5,65,0.00,BKN,,0.37,93.0,WeatherDisplay:10.37,2013-05-29 22:58:00,
2013-05-29 19:03:00,78.4,66.1,29.93,SW,218,6.9,6.9,66,0.00,BKN,,0.37,378.0,WeatherDisplay:10.37,2013-05-29 23:03:00,
2013-05-29 19:08:00,78.6,65.8,29.93,SW,216,11.5,11.5,65,0.00,BKN,,0.37,374.0,WeatherDisplay:10.37,2013-05-29 23:08:00,
2013-05-29 19:13:00,78.6,65.4,29.93,SW,217,6.9,6.9,64,0.00,BKN,,0.37,132.0,WeatherDisplay:10.37,2013-05-29 23:13:00,
2013-05-29 19:18:00,78.4,65.2,29.93,South,171,6.9,6.9,64,0.00,BKN,,0.37,74.0,WeatherDisplay:10.37,2013-05-29 23:18:00,
2013-05-29 19:23:00,78.0,65.3,29.93,SSW,213,8.1,8.1,65,0.00,BKN,,0.37,77.0,WeatherDisplay:10.37,2013-05-29 23:23:00,
2013-05-29 19:28:00,77.7,65.4,29.92,SW,229,4.6,4.6,66,0.00,BKN,,0.37,107.0,WeatherDisplay:10.37,2013-05-29 23:28:00,
2013-05-29 19:33:00,77.7,65.9,29.92,SSW,209,6.0,6.0,67,0.00,BKN,,0.37,100.0,WeatherDisplay:10.37,2013-05-29 23:33:00,
2013-05-29 19:38:00,77.5,65.2,29.92,SW,218,4.6,4.6,66,0.00,BKN,,0.37,79.0,WeatherDisplay:10.37,2013-05-29 23:38:00,
2013-05-29 19:43:00,77.4,65.6,29.92,South,173,5.0,5.0,67,0.00,BKN,,0.37,104.0,WeatherDisplay:10.37,2013-05-29 23:43:00,
2013-05-29 19:48:00,77.3,65.5,29.92,SSW,201,3.5,3.5,67,0.00,BKN,,0.37,81.0,WeatherDisplay:10.37,2013-05-29 23:48:00,
2013-05-29 19:53:00,77.2,65.8,29.92,SSW,202,5.8,5.8,68,0.00,OVC,,0.37,51.0,WeatherDisplay:10.37,2013-05-29 23:53:00,
2013-05-29 19:59:00,76.9,66.0,29.93,SW,236,8.0,8.0,69,0.00,OVC,,0.37,47.0,WeatherDisplay:10.37,2013-05-29 23:59:00,
2013-05-29 20:04:00,76.7,65.8,29.92,SSW,196,6.9,6.9,69,0.00,CLR,,0.37,40.0,WeatherDisplay:10.37,2013-05-30 00:04:00,
2013-05-29 20:09:00,76.5,65.6,29.92,SSW,202,5.8,5.8,69,0.00,BKN,,0.37,67.0,WeatherDisplay:10.37,2013-05-30 00:09:00,
2013-05-29 20:14:00,76.5,65.6,29.92,SSW,210,6.0,6.0,69,0.00,BKN,,0.37,74.0,WeatherDisplay:10.37,2013-05-30 00:14:00,
2013-05-29 20:19:00,76.5,65.6,29.92,South,189,4.6,4.6,69,0.00,BKN,,0.37,83.0,WeatherDisplay:10.37,2013-05-30 00:19:00,
2013-05-29 20:24:00,76.5,66.0,29.92,South,171,4.6,4.6,70,0.00,BKN,,0.37,72.0,WeatherDisplay:10.37,2013-05-30 00:24:00,
2013-05-29 20:29:00,76.4,65.5,29.92,SSW,199,3.5,3.5,69,0.00,BKN,,0.37,60.0,WeatherDisplay:10.37,2013-05-30 00:29:00,
2013-05-29 20:34:00,76.2,65.7,29.92,SW,228,3.5,3.5,70,0.00,CLR,,0.37,53.0,WeatherDisplay:10.37,2013-05-30 00:34:00,
2013-05-29 20:39:00,76.1,65.6,29.92,South,186,4.6,4.6,70,0.00,CLR,,0.37,40.0,WeatherDisplay:10.37,2013-05-30 00:39:00,
2013-05-29 20:44:00,75.9,65.4,29.92,SW,224,4.0,4.0,70,0.00,CLR,,0.37,32.0,WeatherDisplay:10.37,2013-05-30 00:44:00,
2013-05-29 20:49:00,75.8,65.3,29.92,SSW,196,3.5,3.5,70,0.00,CLR,,0.37,16.0,WeatherDisplay:10.37,2013-05-30 00:49:00,
2013-05-29 20:54:00,75.6,65.5,29.92,SSW,193,1.1,1.1,71,0.00,CLR,,0.37,7.0,WeatherDisplay:10.37,2013-05-30 00:54:00,
2013-05-29 20:59:00,75.3,65.6,29.92,SW,230,3.5,3.5,72,0.00,CLR,,0.37,5.0,WeatherDisplay:10.37,2013-05-30 00:59:00,
2013-05-29 21:04:00,75.2,65.6,29.92,SW,223,3.5,3.5,72,0.00,CLR,,0.37,0.0,WeatherDisplay:10.37,2013-05-30 01:04:00,
2013-05-29 21:09:00,74.9,65.3,29.92,SSW,207,2.3,2.3,72,0.00,CLR,,0.37,0.0,WeatherDisplay:10.37,2013-05-30 01:09:00,
2013-05-29 21:14:00,74.7,65.5,29.92,South,186,3.5,3.5,73,0.00,CLR,,0.37,0.0,WeatherDisplay:10.37,2013-05-30 01:14:00,
2013-05-29 21:19:00,74.4,65.2,29.92,SSW,200,3.5,3.5,73,0.00,CLR,,0.37,0.0,WeatherDisplay:10.37,2013-05-30 01:19:00,
2013-05-29 21:24:00,74.0,65.2,29.92,SSW,200,3.5,3.5,74,0.00,CLR,,0.37,0.0,WeatherDisplay:10.37,2013-05-30 01:24:00,
2013-05-29 21:29:00,73.8,65.0,29.92,SSW,200,3.5,3.5,74,0.00,CLR,,0.37,0.0,WeatherDisplay:10.37,2013-05-30 01:29:00,
2013-05-29 21:34:00,73.6,65.2,29.92,SSW,200,2.3,2.3,75,0.00,CLR,,0.37,0.0,WeatherDisplay:10.37,2013-05-30 01:34:00,
2013-05-29 21:39:00,73.4,65.4,29.92,SSW,200,2.3,2.3,76,0.00,CLR,,0.37,0.0,WeatherDisplay:10.37,2013-05-30 01:39:00,
2013-05-29 21:44:00,73.1,65.1,29.92,South,184,5.0,5.0,76,0.00,CLR,,0.37,0.0,WeatherDisplay:10.37,2013-05-30 01:44:00,
2013-05-29 21:49:00,72.9,65.3,29.92,SSW,193,3.0,3.0,77,0.00,CLR,,0.37,0.0,WeatherDisplay:10.37,2013-05-30 01:49:00,
2013-05-29 21:54:00,72.8,65.2,29.93,South,184,4.6,4.6,77,0.00,CLR,,0.37,0.0,WeatherDisplay:10.37,2013-05-30 01:54:00,
2013-05-29 21:59:00,72.7,65.4,29.93,SSW,196,5.0,5.0,78,0.00,CLR,,0.37,0.0,WeatherDisplay:10.37,2013-05-30 01:59:00,
2013-05-29 22:04:00,72.6,65.0,29.93,SSW,200,3.5,3.5,77,0.00,CLR,,0.37,0.0,WeatherDisplay:10.37,2013-05-30 02:04:00,
2013-05-29 22:09:00,72.7,65.4,29.93,SSW,197,3.5,3.5,78,0.00,CLR,,0.37,0.0,WeatherDisplay:10.37,2013-05-30 02:09:00,
2013-05-29 22:14:00,72.8,65.5,29.93,South,187,3.5,3.5,78,0.00,CLR,,0.37,0.0,WeatherDisplay:10.37,2013-05-30 02:14:00,
2013-05-29 22:19:00,72.8,65.5,29.94,South,186,2.3,2.3,78,0.00,CLR,,0.37,0.0,WeatherDisplay:10.37,2013-05-30 02:19:00,
2013-05-29 22:24:00,72.7,65.4,29.94,South,187,3.5,3.5,78,0.00,CLR,,0.37,0.0,WeatherDisplay:10.37,2013-05-30 02:24:00,
2013-05-29 22:29:00,72.7,65.4,29.94,South,187,2.3,2.3,78,0.00,CLR,,0.37,0.0,WeatherDisplay:10.37,2013-05-30 02:29:00,
2013-05-29 22:34:00,72.6,65.3,29.95,South,187,2.3,2.3,78,0.00,CLR,,0.37,0.0,WeatherDisplay:10.37,2013-05-30 02:34:00,
2013-05-29 22:39:00,72.5,65.2,29.95,South,187,2.3,2.3,78,0.00,CLR,,0.37,0.0,WeatherDisplay:10.37,2013-05-30 02:39:00,
2013-05-29 22:44:00,72.3,65.1,29.95,South,187,3.5,3.5,78,0.00,CLR,,0.37,0.0,WeatherDisplay:10.37,2013-05-30 02:44:00,
2013-05-29 22:49:00,72.2,65.3,29.95,South,187,1.1,1.1,79,0.00,CLR,,0.37,0.0,WeatherDisplay:10.37,2013-05-30 02:49:00,
2013-05-29 22:54:00,72.0,65.5,29.95,South,187,2.3,2.3,80,0.00,CLR,,0.37,0.0,WeatherDisplay:10.37,2013-05-30 02:54:00,
2013-05-29 22:59:00,71.9,65.4,29.95,South,184,3.5,3.5,80,0.00,CLR,,0.37,0.0,WeatherDisplay:10.37,2013-05-30 02:59:00,
2013-05-29 23:04:00,71.6,65.5,29.95,South,189,3.5,3.5,81,0.00,CLR,,0.37,0.0,WeatherDisplay:10.37,2013-05-30 03:04:00,
2013-05-29 23:09:00,71.4,65.6,29.95,South,175,3.5,3.5,82,0.00,CLR,,0.37,0.0,WeatherDisplay:10.37,2013-05-30 03:09:00,
2013-05-29 23:14:00,71.1,65.3,29.95,South,175,3.5,3.5,82,0.00,CLR,,0.37,0.0,WeatherDisplay:10.37,2013-05-30 03:14:00,
2013-05-29 23:19:00,70.9,65.5,29.95,South,176,3.5,3.5,83,0.00,CLR,,0.37,0.0,WeatherDisplay:10.37,2013-05-30 03:19:00,
2013-05-29 23:24:00,70.7,65.6,29.94,South,176,1.1,1.1,84,0.00,CLR,,0.37,0.0,WeatherDisplay:10.37,2013-05-30 03:24:00,
2013-05-29 23:29:00,70.5,65.4,29.94,South,176,2.0,2.0,84,0.00,CLR,,0.37,0.0,WeatherDisplay:10.37,2013-05-30 03:29:00,
2013-05-29 23:34:00,70.3,65.6,29.94,South,176,3.0,3.0,85,0.00,CLR,,0.37,0.0,WeatherDisplay:10.37,2013-05-30 03:34:00,
2013-05-29 23:39:00,70.0,65.6,29.94,SSE,159,3.5,3.5,86,0.00,CLR,,0.37,0.0,WeatherDisplay:10.37,2013-05-30 03:39:00,
2013-05-29 23:44:00,69.9,65.5,29.94,South,173,3.5,3.5,86,0.00,CLR,,0.37,0.0,WeatherDisplay:10.37,2013-05-30 03:44:00,
2013-05-29 23:49:00,69.8,65.8,29.94,South,182,3.5,3.5,87,0.00,CLR,,0.37,0.0,WeatherDisplay:10.37,2013-05-30 03:49:00,
2013-05-29 23:54:00,69.7,65.7,29.94,South,173,4.6,4.6,87,0.00,CLR,,0.37,0.0,WeatherDisplay:10.37,2013-05-30 03:54:00,
2013-05-29 23:59:00,69.7,66.0,29.94,SSW,194,5.8,5.8,88,0.00,CLR,,0.37,0.0,WeatherDisplay:10.37,2013-05-30 03:59:00,